Home   Weather   Ede   Past weeks

Flag for Netherlands Past Weather in Ede, Netherlands — Yesterday and Last 2 Weeks

Now
57 °F

Passing clouds.


Feels Like: 57 °F
Forecast: 57 / 76 °F
Wind: 5 mph from South

Location: Deelen

Current Time: Jul 21, 2017 at 8:47:27 am

Latest Report: Jul 21, 2017 at 7:55 am


Visibility: N/A

Pressure: 29.95 "Hg

Humidity: 82%

Dew Point: 52 °F

Location of EdeLocation

Past Weather in Ede — Graph

°F

Ede Temperature Yesterday

Maximum temperature yesterday: 75 °F (at 1:55 pm)
Minimum temperature yesterday: 59 °F (at 11:55 pm)
Average temperature yesterday: 67 °F

High & Low Weather Summary for the Past Weeks

 TemperatureHumidityPressure
High86 °F (Jul 19, 2:55 pm)100% (Jul 7, 12:55 am)30.21 "Hg (Jul 7, 12:55 am)
Low46 °F (Jul 13, 5:55 am)41% (Jul 9, 1:25 pm)29.68 "Hg (Jul 12, 9:55 am)
Average65 °F78%29.99 "Hg
* Reported Jul 6 7:25 am — Jul 21 7:25 am, Ede. Weather by CustomWeather, © 2017

Note: Actual official high and low records may vary slightly from our data, if they occured in-between our weather recording intervals... More about our weather records

Advertising

Ede Weather History for the Previous 24 Hours

Scroll right to see more
 ConditionsComfort  
Time TempWeatherWind HumidityBarometerVisibility
7:25 am
Fri, Jul 21
55 °FPassing clouds.3 mph88%29.95 "HgN/A
6:55 am54 °FPassing clouds.3 mph94%29.95 "HgN/A
6:25 am54 °FCool.3 mph94%29.95 "HgN/A
5:55 am54 °FPassing clouds.1 mph94%29.95 "HgN/A
5:25 am54 °FCool.1 mph94%29.95 "HgN/A
4:55 am54 °FPassing clouds.2 mph94%29.92 "HgN/A
4:25 am55 °FPassing clouds.3 mph94%29.92 "HgN/A
3:55 am54 °FCool.2 mph100%29.92 "HgN/A
3:25 am54 °FPassing clouds.3 mph100%29.92 "HgN/A
2:55 am54 °FPassing clouds.3 mph100%29.92 "HgN/A
2:25 am55 °FPassing clouds.1 mph100%29.92 "HgN/A
1:55 am57 °FPassing clouds.2 mph94%29.92 "HgN/A
1:25 am57 °FPassing clouds.3 mph94%29.92 "HgN/A
12:55 am59 °FOvercast.5 mph94%29.92 "HgN/A
12:25 am59 °FOvercast.3 mph88%29.92 "HgN/A
11:55 pm
Thu, Jul 20
59 °FPassing clouds.3 mph88%29.92 "HgN/A
11:25 pm61 °FPassing clouds.5 mph83%29.89 "HgN/A
10:55 pm63 °FPartly cloudy.5 mph83%29.89 "HgN/A
10:25 pm61 °FPassing clouds.7 mph83%29.89 "HgN/A
9:25 pm64 °FPartly sunny.8 mph78%29.86 "HgN/A
8:55 pm64 °FScattered clouds.12 mph78%29.83 "HgN/A
8:25 pm64 °FMostly cloudy.10 mph83%29.83 "HgN/A
7:55 pm64 °FBroken clouds.9 mph88%29.83 "HgN/A
7:25 pm64 °FMostly cloudy.13 mph83%29.80 "HgN/A
6:55 pm73 °FMore clouds than sun.9 mph65%29.77 "HgN/A
6:25 pm73 °FMostly cloudy.13 mph61%29.77 "HgN/A
5:55 pm73 °FBroken clouds.9 mph65%29.77 "HgN/A
5:25 pm75 °FMore clouds than sun.12 mph57%29.74 "HgN/A
4:55 pm73 °FMostly cloudy.9 mph65%29.77 "HgN/A
4:25 pm75 °FBroken clouds.10 mph57%29.74 "HgN/A
3:55 pm75 °FPartly sunny.13 mph61%29.74 "HgN/A
3:25 pm72 °FBroken clouds.10 mph65%29.74 "HgN/A
2:55 pm75 °FMostly cloudy.16 mph65%29.74 "HgN/A
1:55 pm75 °FScattered clouds.10 mph74%29.74 "HgN/A
1:25 pm73 °FFog.9 mph78%29.74 "Hg6 mi
12:55 pm72 °FFog.10 mph83%29.74 "Hg5 mi
12:25 pm70 °FFog.9 mph88%29.74 "Hg4 mi
11:55 am70 °FMostly cloudy.8 mph88%29.74 "HgN/A
11:25 am70 °FMostly cloudy.7 mph83%29.77 "HgN/A
10:55 am70 °FScattered clouds.6 mph83%29.74 "HgN/A
10:25 am66 °FBroken clouds.6 mph94%29.74 "HgN/A
9:55 am64 °FFog.5 mph100%29.74 "Hg6 mi
9:25 am64 °FRain. Overcast.6 mph100%29.77 "Hg3 mi
8:55 am64 °FLight rain. Overcast.6 mph100%29.77 "Hg5 mi
8:25 am64 °FFog.9 mph94%29.77 "Hg5 mi
Weather by CustomWeather, © 2017

See weather overviewHow to use our weather pages